#Datum;Uhrzeit;WR;Pac;DaySum;Status;WR;Pac;DaySum;Status;Pdc1;Udc;Temp;WR;Pac;DaySum;Status;Pdc1;Udc;Temp;WR;Pac;DaySum;Status;Pdc1;Udc;Temp;WR;Pac;DaySum;Status;Pdc1;Pdc2;Udc1;Udc2;Temp;WR;Pac;DaySum;Status;Pdc1;Pdc2;Udc1;Udc2;Temp;WR;Pac;DaySum;Status;Pdc1;Udc;Temp;WR;Pac;DaySum;Status;Pdc1;Udc;Temp;WR;Pac;DaySum;Status;Pdc1;Udc;Temp
31.10.21;23:55:00;1;368;17591;0;2;0;19199;0;0;0;0;3;0;12736;0;0;0;0;4;0;16807;0;0;0;0;5;0;48429;0;0;0;0;0;0;6;0;36118;0;0;0;0;0;0;7;0;32679;0;0;0;0;8;0;31752;0;0;0;0;9;0;17101;0;0;0;0
31.10.21;23:50:00;1;385;17559;0;2;0;19199;0;0;0;0;3;0;12736;0;0;0;0;4;0;16807;0;0;0;0;5;0;48429;0;0;0;0;0;0;6;0;36118;0;0;0;0;0;0;7;0;32679;0;0;0;0;8;0;31752;0;0;0;0;9;0;17101;0;0;0;0
31.10.21;23:45:00;1;415;17527;0;2;0;19199;0;0;0;0;3;0;12736;0;0;0;0;4;0;16807;0;0;0;0;5;0;48429;0;0;0;0;0;0;6;0;36118;0;0;0;0;0;0;7;0;32679;0;0;0;0;8;0;31752;0;0;0;0;9;0;17101;0;0;0;0
31.10.21;23:40:00;1;432;17492;0;2;0;19199;0;0;0;0;3;0;12736;0;0;0;0;4;0;16807;0;0;0;0;5;0;48429;0;0;0;0;0;0;6;0;36118;0;0;0;0;0;0;7;0;32679;0;0;0;0;8;0;31752;0;0;0;0;9;0;17101;0;0;0;0
31.10.21;23:35:00;1;432;17455;0;2;0;19199;0;0;0;0;3;0;12736;0;0;0;0;4;0;16807;0;0;0;0;5;0;48429;0;0;0;0;0;0;6;0;36118;0;0;0;0;0;0;7;0;32679;0;0;0;0;8;0;31752;0;0;0;0;9;0;17101;0;0;0;0
31.10.21;23:30:00;1;426;17418;0;2;0;19199;0;0;0;0;3;0;12736;0;0;0;0;4;0;16807;0;0;0;0;5;0;48429;0;0;0;0;0;0;6;0;36118;0;0;0;0;0;0;7;0;32679;0;0;0;0;8;0;31752;0;0;0;0;9;0;17101;0;0;0;0
31.10.21;23:25:00;1;484;17382;0;2;0;19199;0;0;0;0;3;0;12736;0;0;0;0;4;0;16807;0;0;0;0;5;0;48429;0;0;0;0;0;0;6;0;36118;0;0;0;0;0;0;7;0;32679;0;0;0;0;8;0;31752;0;0;0;0;9;0;17101;0;0;0;0
31.10.21;23:20:00;1;491;17341;0;2;0;19199;0;0;0;0;3;0;12736;0;0;0;0;4;0;16807;0;0;0;0;5;0;48429;0;0;0;0;0;0;6;0;36118;0;0;0;0;0;0;7;0;32679;0;0;0;0;8;0;31752;0;0;0;0;9;0;17101;0;0;0;0
31.10.21;23:15:00;1;448;17302;0;2;0;19199;0;0;0;0;3;0;12736;0;0;0;0;4;0;16807;0;0;0;0;5;0;48429;0;0;0;0;0;0;6;0;36118;0;0;0;0;0;0;7;0;32679;0;0;0;0;8;0;31752;0;0;0;0;9;0;17101;0;0;0;0
31.10.21;23:10:00;1;477;17264;0;2;0;19199;0;0;0;0;3;0;12736;0;0;0;0;4;0;16807;0;0;0;0;5;0;48429;0;0;0;0;0;0;6;0;36118;0;0;0;0;0;0;7;0;32679;0;0;0;0;8;0;31752;0;0;0;0;9;0;17101;0;0;0;0
31.10.21;23:08:00;1;489;17256;0;2;0;19199;0;0;0;0;3;0;12736;0;0;0;0;4;0;16807;0;0;0;0;5;0;48429;0;0;0;0;0;0;6;0;36118;0;0;0;0;0;0;7;0;32679;0;0;0;0;8;0;31752;0;0;0;0;9;0;17101;0;0;0;0
31.10.21;23:00:00;1;521;17177;0;2;0;19199;0;0;0;0;3;0;12736;0;0;0;0;4;0;16807;0;0;0;0;5;0;48429;0;0;0;0;0;0;6;0;36118;0;0;0;0;0;0;7;0;32679;0;0;0;0;8;0;31752;0;0;0;0;9;0;17101;0;0;0;0
31.10.21;22:55:00;1;498;17136;0;2;0;19199;0;0;0;0;3;0;12736;0;0;0;0;4;0;16807;0;0;0;0;5;0;48429;2;0;0;0;0;0;6;0;36118;2;0;0;0;0;0;7;0;32679;0;0;0;0;8;0;31752;0;0;0;0;9;0;17101;0;0;0;0
31.10.21;22:50:00;1;483;17094;0;2;0;19199;0;0;0;0;3;0;12736;0;0;0;0;4;0;16807;0;0;0;0;5;0;48429;2;0;0;0;0;0;6;0;36118;2;0;0;0;0;0;7;0;32679;0;0;0;0;8;0;31752;0;0;0;0;9;0;17101;0;0;0;0
31.10.21;22:45:00;1;523;17053;0;2;0;19199;0;0;0;0;3;0;12736;0;0;0;0;4;0;16807;0;0;0;0;5;0;48429;2;0;0;0;0;0;6;0;36118;2;0;0;0;0;0;7;0;32679;0;0;0;0;8;0;31752;0;0;0;0;9;0;17101;0;0;0;0
31.10.21;22:40:00;1;485;17009;0;2;0;19199;0;0;0;0;3;0;12736;0;0;0;0;4;0;16807;0;0;0;0;5;0;48429;2;0;0;0;0;0;6;0;36118;2;0;0;0;0;0;7;0;32679;0;0;0;0;8;0;31752;0;0;0;0;9;0;17101;0;0;0;0
31.10.21;22:35:00;1;528;16968;0;2;0;19199;0;0;0;0;3;0;12736;0;0;0;0;4;0;16807;0;0;0;0;5;0;48429;2;0;0;0;0;0;6;0;36118;2;0;0;0;0;0;7;0;32679;0;0;0;0;8;0;31752;0;0;0;0;9;0;17101;0;0;0;0
31.10.21;22:30:00;1;512;16924;0;2;0;19199;0;0;0;0;3;0;12736;0;0;0;0;4;0;16807;0;0;0;0;5;0;48429;2;0;0;0;0;0;6;0;36118;2;0;0;0;0;0;7;0;32679;0;0;0;0;8;0;31752;0;0;0;0;9;0;17101;0;0;0;0
31.10.21;22:25:00;1;467;16881;0;2;0;19199;0;0;0;0;3;0;12736;0;0;0;0;4;0;16807;0;0;0;0;5;0;48429;2;0;0;0;0;0;6;0;36118;2;0;0;0;0;0;7;0;32679;0;0;0;0;8;0;31752;0;0;0;0;9;0;17101;0;0;0;0
31.10.21;22:20:00;1;461;16842;0;2;0;19199;0;0;0;0;3;0;12736;0;0;0;0;4;0;16807;0;0;0;0;5;0;48429;2;0;0;0;0;0;6;0;36118;2;0;0;0;0;0;7;0;32679;0;0;0;0;8;0;31752;0;0;0;0;9;0;17101;0;0;0;0
31.10.21;22:15:00;1;400;16804;0;2;0;19199;0;0;0;0;3;0;12736;0;0;0;0;4;0;16807;0;0;0;0;5;0;48429;2;0;0;0;0;0;6;0;36118;2;0;0;0;0;0;7;0;32679;0;0;0;0;8;0;31752;0;0;0;0;9;0;17101;0;0;0;0
31.10.21;22:10:00;1;492;16770;0;2;0;19199;0;0;0;0;3;0;12736;0;0;0;0;4;0;16807;0;0;0;0;5;0;48429;2;0;0;0;0;0;6;0;36118;2;0;0;0;0;0;7;0;32679;0;0;0;0;8;0;31752;0;0;0;0;9;0;17101;0;0;0;0
31.10.21;22:05:00;1;1805;16729;0;2;0;19199;0;0;0;0;3;0;12736;0;0;0;0;4;0;16807;0;0;0;0;5;0;48429;2;0;0;0;0;0;6;0;36118;2;0;0;0;0;0;7;0;32679;0;0;0;0;8;0;31752;0;0;0;0;9;0;17101;0;0;0;0
31.10.21;22:00:00;1;506;16606;0;2;0;19199;0;0;0;0;3;0;12736;0;0;0;0;4;0;16807;0;0;0;0;5;0;48429;2;0;0;0;0;0;6;0;36118;2;0;0;0;0;0;7;0;32679;0;0;0;0;8;0;31752;0;0;0;0;9;0;17101;0;0;0;0
31.10.21;21:55:00;1;489;16565;0;2;0;19199;0;0;0;0;3;0;12736;0;0;0;0;4;0;16807;0;0;0;0;5;0;48429;2;0;0;0;0;0;6;0;36118;2;0;0;0;0;0;7;0;32679;0;0;0;0;8;0;31752;0;0;0;0;9;0;17101;0;0;0;0
31.10.21;21:50:00;1;521;16523;0;2;0;19199;0;0;0;0;3;0;12736;0;0;0;0;4;0;16807;0;0;0;0;5;0;48429;2;0;0;0;0;0;6;0;36118;2;0;0;0;0;0;7;0;32679;0;0;0;0;8;0;31752;0;0;0;0;9;0;17101;0;0;0;0
31.10.21;21:45:00;1;543;16480;0;2;0;19199;0;0;0;0;3;0;12736;0;0;0;0;4;0;16807;0;0;0;0;5;0;48429;2;0;0;0;0;0;6;0;36118;2;0;0;0;0;0;7;0;32679;0;0;0;0;8;0;31752;0;0;0;0;9;0;17101;0;0;0;0
31.10.21;21:40:00;1;542;16434;0;2;0;19199;0;0;0;0;3;0;12736;0;0;0;0;4;0;16807;0;0;0;0;5;0;48429;2;0;0;0;0;0;6;0;36118;2;0;0;0;0;0;7;0;32679;0;0;0;0;8;0;31752;0;0;0;0;9;0;17101;0;0;0;0
31.10.21;21:35:00;1;387;16391;0;2;0;19199;0;0;0;0;3;0;12736;0;0;0;0;4;0;16807;0;0;0;0;5;0;48429;2;0;0;0;0;0;6;0;36118;2;0;0;0;0;0;7;0;32679;0;0;0;0;8;0;31752;0;0;0;0;9;0;17101;0;0;0;0
31.10.21;21:30:00;1;500;16358;0;2;0;19199;0;0;0;0;3;0;12736;0;0;0;0;4;0;16807;0;0;0;0;5;0;48429;2;0;0;0;0;0;6;0;36118;2;0;0;0;0;0;7;0;32679;0;0;0;0;8;0;31752;0;0;0;0;9;0;17101;0;0;0;0
31.10.21;21:25:00;1;521;16316;0;2;0;19199;0;0;0;0;3;0;12736;0;0;0;0;4;0;16807;0;0;0;0;5;0;48429;2;0;0;0;0;0;6;0;36118;2;0;0;0;0;0;7;0;32679;0;0;0;0;8;0;31752;0;0;0;0;9;0;17101;0;0;0;0
31.10.21;21:20:00;1;546;16273;0;2;0;19199;0;0;0;0;3;0;12736;0;0;0;0;4;0;16807;0;0;0;0;5;0;48429;2;0;0;0;0;0;6;0;36118;2;0;0;0;0;0;7;0;32679;0;0;0;0;8;0;31752;0;0;0;0;9;0;17101;0;0;0;0
31.10.21;21:15:00;1;571;16227;0;2;0;19199;0;0;0;0;3;0;12736;0;0;0;0;4;0;16807;0;0;0;0;5;0;48429;2;0;0;0;0;0;6;0;36118;2;0;0;0;0;0;7;0;32679;0;0;0;0;8;0;31752;0;0;0;0;9;0;17101;0;0;0;0
31.10.21;21:10:00;1;833;16179;0;2;0;19199;0;0;0;0;3;0;12736;0;0;0;0;4;0;16807;0;0;0;0;5;0;48429;2;0;0;0;0;0;6;0;36118;2;0;0;0;0;0;7;0;32679;0;0;0;0;8;0;31752;0;0;0;0;9;0;17101;0;0;0;0
31.10.21;21:05:00;1;2897;16104;0;2;0;19199;0;0;0;0;3;0;12736;0;0;0;0;4;0;16807;0;0;0;0;5;0;48429;2;0;0;0;0;0;6;0;36118;2;0;0;0;0;0;7;0;32679;0;0;0;0;8;0;31752;0;0;0;0;9;0;17101;0;0;0;0
31.10.21;21:00:00;1;2969;15862;0;2;0;19199;0;0;0;0;3;0;12736;0;0;0;0;4;0;16807;0;0;0;0;5;0;48429;2;0;0;0;0;0;6;0;36118;2;0;0;0;0;0;7;0;32679;0;0;0;0;8;0;31752;0;0;0;0;9;0;17101;0;0;0;0
31.10.21;20:55:00;1;2932;15616;0;2;0;19199;0;0;0;0;3;0;12736;0;0;0;0;4;0;16807;0;0;0;0;5;0;48429;2;0;0;0;0;0;6;0;36118;2;0;0;0;0;0;7;0;32679;0;0;0;0;8;0;31752;0;0;0;0;9;0;17101;0;0;0;0
31.10.21;20:50:00;1;3027;15372;0;2;0;19199;0;0;0;0;3;0;12736;0;0;0;0;4;0;16807;0;0;0;0;5;0;48429;2;0;0;0;0;0;6;0;36118;2;0;0;0;0;0;7;0;32679;0;0;0;0;8;0;31752;0;0;0;0;9;0;17101;0;0;0;0
31.10.21;20:45:00;1;1140;15161;0;2;0;19199;0;0;0;0;3;0;12736;0;0;0;0;4;0;16807;0;0;0;0;5;0;48429;2;0;0;0;0;0;6;0;36118;2;0;0;0;0;0;7;0;32679;0;0;0;0;8;0;31752;0;0;0;0;9;0;17101;0;0;0;0
31.10.21;20:40:00;1;1098;15066;0;2;0;19199;0;0;0;0;3;0;12736;0;0;0;0;4;0;16807;0;0;0;0;5;0;48429;2;0;0;0;0;0;6;0;36118;2;0;0;0;0;0;7;0;32679;0;0;0;0;8;0;31752;0;0;0;0;9;0;17101;0;0;0;0
31.10.21;20:35:00;1;1038;14972;0;2;0;19199;0;0;0;0;3;0;12736;0;0;0;0;4;0;16807;0;0;0;0;5;0;48429;2;0;0;0;0;0;6;0;36118;2;0;0;0;0;0;7;0;32679;0;0;0;0;8;0;31752;0;0;0;0;9;0;17101;0;0;0;0
31.10.21;20:30:00;1;999;14887;0;2;0;19199;0;0;0;0;3;0;12736;0;0;0;0;4;0;16807;0;0;0;0;5;0;48429;2;0;0;0;0;0;6;0;36118;2;0;0;0;0;0;7;0;32679;0;0;0;0;8;0;31752;0;0;0;0;9;0;17101;0;0;0;0
31.10.21;20:25:00;1;1021;14803;0;2;0;19199;0;0;0;0;3;0;12736;0;0;0;0;4;0;16807;0;0;0;0;5;0;48429;2;0;0;0;0;0;6;0;36118;2;0;0;0;0;0;7;0;32679;0;0;0;0;8;0;31752;0;0;0;0;9;0;17101;0;0;0;0
31.10.21;20:20:00;1;1032;14718;0;2;0;19199;0;0;0;0;3;0;12736;0;0;0;0;4;0;16807;0;0;0;0;5;0;48429;2;0;0;0;0;0;6;0;36118;2;0;0;0;0;0;7;0;32679;0;0;0;0;8;0;31752;0;0;0;0;9;0;17101;0;0;0;0
31.10.21;20:15:00;1;1027;14631;0;2;0;19199;0;0;0;0;3;0;12736;0;0;0;0;4;0;16807;0;0;0;0;5;0;48429;2;0;0;0;0;0;6;0;36118;2;0;0;0;0;0;7;0;32679;0;0;0;0;8;0;31752;0;0;0;0;9;0;17101;0;0;0;0
31.10.21;20:10:00;1;955;14548;0;2;0;19199;0;0;0;0;3;0;12736;0;0;0;0;4;0;16807;0;0;0;0;5;0;48429;2;0;0;0;0;0;6;0;36118;2;0;0;0;0;0;7;0;32679;0;0;0;0;8;0;31752;0;0;0;0;9;0;17101;0;0;0;0
31.10.21;20:05:00;1;2246;14471;0;2;0;19199;0;0;0;0;3;0;12736;0;0;0;0;4;0;16807;0;0;0;0;5;0;48429;2;0;0;0;0;0;6;0;36118;2;0;0;0;0;0;7;0;32679;0;0;0;0;8;0;31752;0;0;0;0;9;0;17101;0;0;0;0
31.10.21;20:00:00;1;2770;14274;0;2;0;19199;0;0;0;0;3;0;12736;0;0;0;0;4;0;16807;0;0;0;0;5;0;48429;2;0;0;0;0;0;6;0;36118;2;0;0;0;0;0;7;0;32679;0;0;0;0;8;0;31752;0;0;0;0;9;0;17101;0;0;0;0
31.10.21;19:55:00;1;2823;14043;0;2;0;19199;0;0;0;0;3;0;12736;0;0;0;0;4;0;16807;0;0;0;0;5;0;48429;2;0;0;0;0;0;6;0;36118;2;0;0;0;0;0;7;0;32679;0;0;0;0;8;0;31752;0;0;0;0;9;0;17101;0;0;0;0
31.10.21;19:50:00;1;2819;13808;0;2;0;19199;0;0;0;0;3;0;12736;0;0;0;0;4;0;16807;0;0;0;0;5;0;48429;2;0;0;0;0;0;6;0;36118;2;0;0;0;0;0;7;0;32679;0;0;0;0;8;0;31752;0;0;0;0;9;0;17101;0;0;0;0
31.10.21;19:45:00;1;1449;13608;0;2;0;19199;0;0;0;0;3;0;12736;0;0;0;0;4;0;16807;0;0;0;0;5;0;48429;2;0;0;0;0;0;6;0;36118;2;0;0;0;0;0;7;0;32679;0;0;0;0;8;0;31752;0;0;0;0;9;0;17101;0;0;0;0
31.10.21;19:40:00;1;1134;13488;0;2;0;19199;0;0;0;0;3;0;12736;0;0;0;0;4;0;16807;0;0;0;0;5;0;48429;2;0;0;0;0;0;6;0;36118;2;0;0;0;0;0;7;0;32679;0;0;0;0;8;0;31752;0;0;0;0;9;0;17101;0;0;0;0
31.10.21;19:35:00;1;472;13396;0;2;0;19199;0;0;0;0;3;0;12736;0;0;0;0;4;0;16807;0;0;0;0;5;0;48429;2;0;0;0;0;0;6;0;36118;2;0;0;0;0;0;7;0;32679;0;0;0;0;8;0;31752;0;0;0;0;9;0;17101;0;0;0;0
31.10.21;19:30:00;1;346;13358;0;2;0;19199;0;0;0;0;3;0;12736;0;0;0;0;4;0;16807;0;0;0;0;5;0;48429;2;0;0;0;0;0;6;0;36118;2;0;0;0;0;0;7;0;32679;0;0;0;0;8;0;31752;0;0;0;0;9;0;17101;0;0;0;0
31.10.21;19:25:00;1;384;13328;0;2;0;19199;0;0;0;0;3;0;12736;0;0;0;0;4;0;16807;0;0;0;0;5;0;48429;2;0;0;0;0;0;6;0;36118;2;0;0;0;0;0;7;0;32679;0;0;0;0;8;0;31752;0;0;0;0;9;0;17101;0;0;0;0
31.10.21;19:20:00;1;421;13296;0;2;0;19199;0;0;0;0;3;0;12736;0;0;0;0;4;0;16807;0;0;0;0;5;0;48429;2;0;0;0;0;0;6;0;36118;2;0;0;0;0;0;7;0;32679;0;0;0;0;8;0;31752;0;0;0;0;9;0;17101;0;0;0;0
31.10.21;19:15:00;1;419;13261;0;2;0;19199;0;0;0;0;3;0;12736;0;0;0;0;4;0;16807;0;0;0;0;5;0;48429;2;0;0;0;0;0;6;0;36118;2;0;0;0;0;0;7;0;32679;0;0;0;0;8;0;31752;0;0;0;0;9;0;17101;0;0;0;0
31.10.21;19:10:00;1;433;13226;0;2;0;19199;0;0;0;0;3;0;12736;0;0;0;0;4;0;16807;0;0;0;0;5;0;48429;2;0;0;0;0;0;6;0;36118;2;0;0;0;0;0;7;0;32679;0;0;0;0;8;0;31752;0;0;0;0;9;0;17101;0;0;0;0
31.10.21;19:05:00;1;394;13193;0;2;0;19199;0;0;0;0;3;0;12736;0;0;0;0;4;0;16807;0;0;0;0;5;0;48429;2;0;0;0;0;0;6;0;36118;2;0;0;0;0;0;7;0;32679;0;0;0;0;8;0;31752;0;0;0;0;9;0;17101;0;0;0;0
31.10.21;19:00:00;1;408;13160;0;2;0;19199;0;0;0;0;3;0;12736;0;0;0;0;4;0;16807;0;0;0;0;5;0;48429;2;0;0;0;0;0;6;0;36118;2;0;0;0;0;0;7;0;32679;0;0;0;0;8;0;31752;0;0;0;0;9;0;17101;0;0;0;0
31.10.21;18:55:00;1;369;13127;0;2;0;19199;0;0;0;0;3;0;12736;0;0;0;0;4;0;16807;0;0;0;0;5;0;48429;2;0;0;0;0;0;6;0;36118;2;0;0;0;0;0;7;0;32679;0;0;0;0;8;0;31752;0;0;0;0;9;0;17101;0;0;0;0
31.10.21;18:50:00;1;365;13096;0;2;0;19199;0;0;0;0;3;0;12736;0;0;0;0;4;0;16807;0;0;0;0;5;0;48429;2;0;0;0;0;0;6;0;36118;2;0;0;0;0;0;7;0;32679;0;0;0;0;8;0;31752;0;0;0;0;9;0;17101;0;0;0;0
31.10.21;18:45:00;1;382;13065;0;2;0;19199;0;0;0;0;3;0;12736;0;0;0;0;4;0;16807;0;0;0;0;5;0;48429;2;0;0;0;0;0;6;0;36118;2;0;0;0;0;0;7;0;32679;0;0;0;0;8;0;31752;0;0;0;0;9;0;17101;0;0;0;0
31.10.21;18:40:00;1;408;13033;0;2;0;19199;0;0;0;0;3;0;12736;0;0;0;0;4;0;16807;0;0;0;0;5;0;48429;2;0;0;0;0;0;6;0;36118;2;0;0;0;0;0;7;0;32679;0;0;0;0;8;0;31752;0;0;0;0;9;0;17101;0;0;0;0
31.10.21;18:35:00;1;452;12999;0;2;0;19199;0;0;0;0;3;0;12736;0;0;0;0;4;0;16807;0;0;0;0;5;0;48429;2;0;0;0;0;0;6;0;36118;2;0;0;0;0;0;7;0;32679;0;0;0;0;8;0;31752;0;0;0;0;9;0;17101;0;0;0;0
31.10.21;18:30:00;1;432;12961;0;2;0;19199;0;0;0;0;3;0;12736;0;0;0;0;4;0;16807;0;0;0;0;5;0;48429;2;0;0;0;0;0;6;0;36118;2;0;0;0;0;0;7;0;32679;0;0;0;0;8;0;31752;0;0;0;0;9;0;17101;0;0;0;0
31.10.21;18:25:00;1;323;12926;0;2;0;19199;0;0;0;0;3;0;12736;0;0;0;0;4;0;16807;0;0;0;0;5;0;48429;2;0;0;0;0;0;6;0;36118;2;0;0;0;0;0;7;0;32679;0;0;0;0;8;0;31752;0;0;0;0;9;0;17101;0;0;0;0
31.10.21;18:20:00;1;388;12899;0;2;0;19199;0;0;0;0;3;0;12736;0;0;0;0;4;0;16807;0;0;0;0;5;0;48429;2;0;0;0;0;0;6;0;36118;2;0;0;0;0;0;7;0;32679;0;0;0;0;8;0;31752;0;0;0;0;9;0;17101;0;0;0;0
31.10.21;18:15:00;1;387;12867;0;2;0;19199;0;0;0;0;3;0;12736;0;0;0;0;4;0;16807;0;0;0;0;5;0;48429;2;0;0;0;0;0;6;0;36118;2;0;0;0;0;0;7;0;32679;0;0;0;0;8;0;31752;0;0;0;0;9;0;17101;0;0;0;0
31.10.21;18:10:00;1;397;12834;0;2;0;19199;0;0;0;0;3;0;12736;0;0;0;0;4;0;16807;0;0;0;0;5;0;48429;2;0;0;0;0;0;6;0;36118;2;0;0;0;0;0;7;0;32679;0;0;0;0;8;0;31752;0;0;0;0;9;0;17101;0;0;0;0
31.10.21;18:05:00;1;376;12801;0;2;0;19199;0;0;0;0;3;0;12736;0;0;0;0;4;0;16807;0;0;0;0;5;0;48429;2;0;0;0;0;0;6;0;36118;2;0;0;0;0;0;7;0;32679;0;0;0;0;8;0;31752;0;0;0;0;9;0;17101;0;0;0;0
31.10.21;18:00:00;1;403;12769;0;2;0;19199;0;0;0;0;3;0;12736;0;0;0;0;4;0;16807;0;0;0;0;5;0;48429;2;0;0;0;0;0;6;0;36118;2;0;0;0;0;0;7;0;32679;0;0;0;0;8;0;31752;0;0;0;0;9;0;17101;0;0;0;0
31.10.21;17:55:00;1;733;12724;0;2;0;19199;0;0;0;0;3;0;12736;0;0;0;0;4;0;16807;0;0;0;0;5;0;48429;2;0;0;0;0;0;6;0;36118;2;0;0;0;0;0;7;0;32679;0;0;0;0;8;0;31752;0;0;0;0;9;0;17101;0;0;0;0
31.10.21;17:50:00;1;382;12663;0;2;0;19199;0;0;0;0;3;0;12736;0;0;0;0;4;0;16807;0;0;0;0;5;0;48429;2;0;0;0;0;0;6;0;36118;2;0;0;0;0;0;7;0;32679;0;0;0;0;8;0;31752;0;0;0;0;9;0;17101;0;0;0;0
31.10.21;17:45:00;1;473;12629;0;2;0;19199;0;0;0;0;3;0;12736;0;0;0;0;4;0;16807;0;0;0;0;5;0;48429;2;0;0;0;0;0;6;0;36118;2;0;0;0;0;0;7;0;32679;0;0;0;0;8;0;31752;0;0;0;0;9;0;17101;0;0;0;0
31.10.21;17:40:00;1;514;12589;0;2;0;19199;0;0;0;0;3;0;12736;0;0;0;0;4;0;16807;0;0;0;0;5;0;48429;2;0;0;0;0;0;6;0;36118;2;0;0;0;0;0;7;0;32679;0;0;0;0;8;0;31752;0;0;0;0;9;0;17101;0;0;0;0
31.10.21;17:35:00;1;892;12545;0;2;0;19199;0;0;0;0;3;0;12736;0;0;0;0;4;0;16807;0;0;0;0;5;0;48429;2;0;0;0;0;0;6;0;36118;2;0;0;0;0;0;7;0;32679;0;0;0;0;8;0;31752;0;0;0;0;9;0;17101;0;0;0;0
31.10.21;17:30:00;1;1576;12458;0;2;0;19199;0;0;0;0;3;0;12736;0;0;0;0;4;0;16807;0;0;0;0;5;0;48429;2;0;0;0;0;0;6;0;36118;2;0;0;0;0;0;7;0;32679;0;0;0;0;8;0;31752;0;0;0;0;9;0;17101;0;0;0;0
31.10.21;17:25:00;1;2047;12317;0;2;0;19199;0;0;0;0;3;0;12736;0;0;0;0;4;0;16807;0;0;0;0;5;0;48429;2;0;0;0;0;0;6;0;36118;2;0;0;0;0;0;7;0;32679;0;0;0;0;8;0;31752;0;0;0;0;9;0;17101;0;0;0;0
31.10.21;17:20:00;1;2642;12173;0;2;0;19199;0;0;0;0;3;0;12736;0;0;0;0;4;0;16807;0;0;0;0;5;0;48429;2;0;0;0;0;0;6;0;36118;2;0;0;0;0;0;7;0;32679;0;0;0;0;8;0;31752;0;0;0;0;9;0;17101;0;0;0;0
31.10.21;17:15:00;1;2578;11940;0;2;0;19199;0;0;85;7;3;0;12736;0;0;228;18;4;0;16807;0;0;0;0;5;0;48429;2;0;0;0;0;0;6;0;36118;2;0;0;0;0;0;7;0;32679;0;0;0;0;8;0;31752;0;0;0;0;9;0;17101;0;0;0;0
31.10.21;17:10:00;1;1514;11725;0;2;0;19199;6;0;290;21;3;0;12736;6;0;330;23;4;0;16807;0;0;60;18;5;0;48429;2;0;0;0;0;0;6;0;36118;2;0;0;0;0;0;7;0;32679;0;0;0;0;8;0;31752;0;0;0;0;9;0;17101;0;0;0;0
31.10.21;17:05:00;1;362;11632;0;2;0;19199;6;0;312;22;3;0;12736;6;0;380;23;4;0;16807;1;0;94;23;5;0;48429;2;0;1;85;84;11;6;0;36118;2;0;0;0;0;0;7;0;32679;0;0;0;0;8;0;31752;0;0;0;0;9;0;17101;0;0;0;0
31.10.21;17:00:00;1;355;11602;0;2;0;19199;6;0;340;22;3;0;12736;4;2;418;24;4;0;16807;1;0;127;23;5;0;48429;1;0;0;322;320;33;6;0;36118;2;0;0;293;290;24;7;0;32679;0;0;225;20;8;0;31752;0;0;223;20;9;0;17101;2;0;282;20
31.10.21;16:55:00;1;395;11571;0;2;0;19199;6;0;372;23;3;1;12736;3;4;439;24;4;0;16807;1;0;186;24;5;6;48429;1;0;0;388;593;34;6;0;36118;26;0;0;530;526;31;7;0;32679;6;0;378;26;8;0;31752;6;0;375;25;9;0;17101;6;0;390;20
31.10.21;16:50:00;1;400;11538;0;2;0;19199;6;0;391;24;3;2;12735;6;6;479;24;4;0;16807;1;0;201;25;5;13;48429;26;0;0;404;635;34;6;13;36118;1;0;0;547;538;31;7;0;32679;6;2;421;27;8;0;31752;6;1;422;26;9;0;17101;6;0;448;21
31.10.21;16:45:00;1;356;11508;0;2;21;19199;6;36;379;24;3;1;12735;6;7;506;25;4;1;16807;3;1;199;25;5;90;48426;4;6;19;369;582;35;6;48;36117;1;0;9;545;525;32;7;0;32679;6;4;459;27;8;0;31752;6;0;475;26;9;2;17101;6;2;497;21
31.10.21;16:40:00;1;487;11477;0;2;57;19197;4;87;358;25;3;5;12735;6;11;513;25;4;19;16807;3;19;199;25;5;124;48419;4;25;35;369;582;35;6;93;36112;4;0;22;521;504;33;7;29;32679;6;51;378;28;8;6;31752;3;11;470;27;9;2;17101;4;5;514;22
31.10.21;16:35:00;1;493;11437;0;2;149;19192;4;185;377;26;3;60;12735;6;90;472;26;4;28;16805;3;29;197;26;5;170;48408;4;47;56;369;582;35;6;129;36104;4;5;40;521;503;33;7;71;32677;4;107;404;28;8;52;31751;4;92;419;27;9;5;17101;6;8;531;22
31.10.21;16:30:00;1;492;11395;0;2;280;19180;4;323;383;27;3;166;12730;4;204;406;27;4;123;16803;3;128;211;26;5;245;48394;4;96;85;369;582;36;6;186;36093;4;32;73;521;504;33;7;108;32671;4;140;419;29;8;87;31747;4;118;390;28;9;7;17100;6;13;534;23
31.10.21;16:25:00;1;449;11354;0;2;369;19157;4;414;382;28;3;244;12716;4;283;406;27;4;284;16792;5;296;226;26;5;340;48372;4;154;125;369;582;36;6;263;36077;4;76;115;521;504;33;7;188;32662;4;234;454;29;8;116;31740;4;151;419;28;9;7;17100;6;12;539;23
31.10.21;16:20:00;1;443;11317;0;2;401;19126;4;448;382;29;3;251;12696;4;290;406;28;4;288;16768;5;300;226;27;5;396;48343;4;181;156;369;581;36;6;304;36055;4;94;134;520;504;33;7;259;32646;4;299;472;30;8;137;31730;4;174;406;29;9;24;17099;6;33;520;24
31.10.21;16:15:00;1;409;11281;0;2;560;19093;4;610;356;29;3;340;12675;4;384;412;28;4;353;16744;5;367;220;27;5;556;48310;4;260;221;395;603;36;6;407;36029;4;145;183;521;524;33;7;383;32625;4;420;476;31;8;193;31719;4;234;430;30;9;56;17097;6;84;490;25
31.10.21;16:10:00;1;584;11241;0;2;739;19047;4;794;360;30;3;420;12647;4;469;415;29;4;428;16716;5;445;226;27;5;714;48262;4;338;285;408;641;37;6;528;35994;4;201;239;543;540;33;7;642;32593;4;695;469;31;8;260;31703;4;300;467;30;9;82;17093;4;112;478;25
31.10.21;16:05:00;1;564;11192;0;2;916;18984;4;978;370;31;3;495;12612;4;544;414;29;4;463;16679;5;482;211;28;5;874;48200;4;421;356;405;648;37;6;647;35949;4;251;297;540;545;34;7;946;32539;4;1003;468;32;8;388;31681;4;430;423;31;9;89;17086;4;128;497;26
31.10.21;16:00:00;1;313;11112;0;2;867;18908;4;930;376;32;3;461;12570;4;510;417;30;4;433;16641;5;452;209;28;5;879;48128;4;424;358;410;648;37;6;644;35895;4;248;293;549;544;34;7;984;32461;4;1047;464;32;8;548;31649;4;592;363;31;9;99;17079;4;130;516;27
31.10.21;15:55:00;1;353;11087;0;2;1156;18837;4;1227;377;33;3;623;12532;4;674;424;30;4;549;16605;5;572;211;28;5;1179;48053;4;593;483;415;664;37;6;870;35840;4;353;402;564;545;34;7;1414;32379;4;1490;477;33;8;957;31603;4;1014;381;32;9;117;17070;4;150;494;27
31.10.21;15:50:00;1;300;11059;0;2;1314;18741;4;1395;377;34;3;717;12481;4;772;411;31;4;619;16560;5;645;213;29;5;1396;47953;4;713;584;415;673;38;6;1047;35766;4;449;486;586;554;34;7;1762;32263;4;1852;473;33;8;1369;31525;4;1438;406;33;9;122;17061;4;151;387;28
31.10.21;15:45:00;1;339;11034;0;2;1401;18630;4;1485;382;35;3;803;12420;4;860;421;31;4;653;16508;5;680;200;29;5;1580;47835;4;810;663;419;687;38;6;1192;35678;4;526;553;588;557;34;7;1915;32115;4;2012;476;34;8;1626;31409;4;1706;449;33;9;160;17050;4;189;357;29
31.10.21;15:40:00;1;329;11006;0;2;1557;18513;4;1645;381;36;3;876;12353;4;936;414;32;4;639;16453;5;665;200;29;5;1811;47700;4;929;763;421;669;38;6;1350;35577;4;600;622;585;553;35;7;2120;31955;4;2234;472;34;8;1980;31275;4;2079;459;34;9;301;17037;4;337;357;30
31.10.21;15:35:00;1;314;10979;0;2;1880;18383;4;1984;377;37;3;1060;12280;4;1128;412;32;4;695;16400;5;724;199;29;5;2234;47546;4;1174;961;416;682;39;6;1678;35462;4;770;802;597;560;35;7;2534;31780;4;2661;473;34;8;2462;31112;4;2585;469;34;9;743;17012;4;792;358;31
31.10.21;15:30:00;1;347;10953;0;2;1878;18227;4;1981;371;37;3;1062;12192;4;1128;414;33;4;678;16342;5;706;199;30;5;2314;47359;4;1228;997;418;674;39;6;1733;35322;4;797;827;598;560;35;7;2567;31569;4;2694;471;35;8;2505;30909;4;2629;470;34;9;1000;16951;4;1062;401;32
31.10.21;15:25:00;1;411;10924;0;2;2001;18071;4;2107;370;38;3;1125;12103;4;1197;417;33;4;722;16286;5;752;216;30;5;2550;47164;4;1352;1088;423;689;39;6;1902;35176;4;889;908;584;559;35;7;2726;31355;4;2864;470;35;8;2662;30698;4;2791;466;35;9;1191;16867;4;1266;437;33
31.10.21;15:20:00;1;457;10889;0;2;2122;17904;4;2236;374;39;3;1196;12010;4;1270;417;33;4;759;16226;5;791;207;31;5;2783;46950;4;1490;1202;421;682;40;6;2086;35016;4;984;997;591;560;35;7;2912;31128;4;3069;476;36;8;2849;30477;4;2993;470;35;9;1379;16768;4;1464;461;34
31.10.21;15:15:00;1;467;10851;0;2;2263;17726;4;2382;373;40;3;1286;11910;4;1360;412;34;4;770;16163;5;802;204;31;5;3089;46715;4;1653;1335;423;678;40;6;2303;34840;4;1103;1099;592;564;35;7;3161;30885;4;3319;473;36;8;3082;30240;4;3235;466;35;9;1539;16653;4;1632;477;35
31.10.21;15:10:00;1;373;10812;0;2;2181;17538;4;2296;369;40;3;1237;11803;4;1312;413;34;4;755;16098;5;787;230;31;5;3050;46459;4;1644;1309;418;685;40;6;2282;34648;4;1094;1093;584;561;36;7;3065;30623;4;3218;468;36;8;2989;29983;4;3136;465;36;9;1533;16525;4;1627;484;36
31.10.21;15:05:00;1;578;10780;0;2;2476;17356;4;2607;377;41;3;1375;11699;4;1457;412;35;4;846;16035;5;881;216;32;5;3476;46201;4;1872;1516;418;682;40;6;2592;34455;4;1240;1251;589;559;36;7;3370;30367;4;3539;472;37;8;3281;29733;4;3443;465;36;9;1726;16397;4;1833;502;36
31.10.21;15:00:00;1;460;10729;0;2;2604;17149;4;2739;374;42;3;1445;11585;4;1526;409;35;4;903;15965;5;940;212;32;5;3740;45910;4;2007;1627;417;673;41;6;2784;34238;4;1352;1332;587;559;36;7;3581;30089;4;3755;466;37;8;3489;29462;4;3658;465;36;9;1897;16254;4;2016;513;37
31.10.21;14:55:00;1;490;10688;0;2;2656;16932;4;2795;370;42;3;1472;11464;4;1554;410;36;4;941;15889;5;980;213;33;5;3902;45595;4;2102;1703;414;670;41;6;2915;34003;4;1417;1407;584;560;36;7;3652;29788;4;3835;464;37;8;3572;29170;4;3749;454;37;9;1950;16095;4;2068;509;37
31.10.21;14:50:00;1;521;10647;0;2;2730;16711;4;2870;380;43;3;1505;11342;4;1589;410;36;4;993;15811;5;1034;210;33;5;4088;45267;4;2213;1783;413;672;41;6;3039;33759;4;1495;1465;583;552;36;7;3761;29483;4;3944;456;38;8;3672;28871;4;3848;454;37;9;2007;15933;4;2126;508;38
31.10.21;14:45:00;1;484;10603;0;2;2726;16483;4;2871;381;43;3;1501;11216;4;1582;408;37;4;1055;15728;5;1099;210;34;5;4150;44926;4;2246;1814;411;667;41;6;3093;33505;4;1514;1485;582;554;36;7;3752;29170;4;3941;460;38;8;3674;28568;4;3851;455;37;9;2007;15767;4;2129;507;38
31.10.21;14:40:00;1;459;10560;0;2;2807;16256;4;2955;376;44;3;1543;11091;4;1626;410;37;4;1189;15640;5;1238;224;34;5;4351;44579;4;2356;1898;412;670;42;6;3237;33247;4;1576;1551;582;555;36;7;3834;28857;4;4023;455;38;8;3747;28258;4;3927;451;38;9;2053;15598;4;2173;501;39
31.10.21;14:35:00;1;480;10523;0;2;2989;16022;4;3147;381;44;3;1653;10962;4;1743;421;38;4;1345;15541;5;1401;231;35;5;4664;44215;4;2545;2039;410;665;42;6;3480;32976;4;1707;1694;579;552;36;7;4042;28537;4;4238;456;39;8;3954;27946;4;4148;451;38;9;2163;15427;4;2290;499;39
31.10.21;14:30:00;1;481;10484;0;2;3016;15773;4;3178;382;44;3;1778;10825;4;1878;444;38;4;1452;15430;5;1512;233;35;5;4792;43826;4;2601;2100;411;658;42;6;3574;32685;4;1757;1740;578;553;37;7;4111;28203;4;4319;455;39;8;4029;27619;4;4222;454;38;9;2208;15247;4;2338;501;39
31.10.21;14:25:00;1;480;10445;0;2;3114;15521;4;3278;380;45;3;1934;10676;4;2040;466;39;4;1563;15308;5;1628;235;36;5;5061;43423;4;2763;2218;413;662;42;6;3773;32385;4;1877;1821;577;553;37;7;4305;27858;4;4516;456;39;8;4213;27282;4;4424;455;38;9;2322;15065;4;2454;503;40